Weather History for Buffalo, MN

Change the Weather History Date:

Monday, January 27, 2014

  Actual Average (KSTC) Record (KSTC)
Temperature  
Mean Temperature -12 °F 12 °F  
Max Temperature -7 °F 22 °F 47 °F (1906)
Min Temperature -18 °F 2 °F -30 °F (1895)
Degree Days  
Heating Degree Days 78 53  
Month to date heating degree days 1446  
Since 1 July heating degree days 4893  
Cooling Degree Days 0 0  
Month to date cooling degree days 0  
Year to date cooling degree days 0  
Moisture  
Dew Point -23 °F    
Average Humidity 62    
Maximum Humidity 76    
Minimum Humidity 56    
Precipitation  
Precipitation 0.00 in 0.02 in 0.57 in (1944)
Month to date precipitation 0.58  
Year to date precipitation 0.58  
Snow  
Snow 0.00 in 0.30 in 3.80 in (1956)
Month to date snowfall 7.7  
Since 1 July snowfall 26.3  
Snow Depth -    
Sea Level Pressure  
Sea Level Pressure 30.34 in    
Wind  
Wind Speed 12 mph (West)    
Max Wind Speed 16 mph    
Max Gust Speed 26 mph    
Visibility 10 miles    
Events      
T = Trace of Precipitation, MM = Missing Value Source: NWS Daily Summary

Daily Weather History Graph

Daily Weather History Graph

Search for Another Location

Airport:

Trip Planner

Search our weather history database for the weather conditions in past years. The results will help you decide how hot, cold, wet, or windy it might be!

Date:

Astronomy

Jan. 27, 2014 Rise Set
Actual Time 7:40 AM CST 5:15 PM CST
Civil Twilight 7:09 AM CST 5:47 PM CST
Nautical Twilight 6:33 AM CST 6:23 PM CST
Astronomical Twilight 5:58 AM CST 6:58 PM CST
Moon 4:24 AM CST 2:00 PM CST
Length of Visible Light 10h 38m
Length of Day
9h 34m
Waning Crescent, 14% of the Moon is Illuminated
Jan 27
Waning Crescent
Jan 30
New
Feb 6
First Quarter
Feb 14
Full
Feb 22
Last Quarter

Hourly Weather History & Observations

Time (CST) Temp. Windchill Dew Point Humidity Pressure Visibility Wind Dir Wind Speed Gust Speed Precip Events Conditions
12:16 AM -10.7 °F -33.8 °F -20.6 °F 62% 30.12 in - WNW 16.1 mph 26.5 mph N/A   Clear
12:35 AM -11.2 °F -32.9 °F -21.1 °F 62% 30.13 in - WNW 13.8 mph 23.0 mph N/A   Clear
12:56 AM -11.4 °F -32.3 °F -21.1 °F 62% 30.14 in - WNW 12.7 mph 19.6 mph N/A   Clear
1:16 AM -11.7 °F -32.7 °F -21.6 °F 62% 30.14 in - WNW 12.7 mph 23.0 mph N/A   Clear
1:35 AM -12.1 °F -34.1 °F -22.2 °F 61% 30.15 in - WNW 13.8 mph 24.2 mph N/A   Clear
1:56 AM -12.5 °F -35.3 °F -22.2 °F 62% 30.16 in - WNW 15.0 mph 18.4 mph N/A   Clear
2:16 AM -12.8 °F -35.0 °F -22.4 °F 62% 30.17 in - WNW 13.8 mph 20.7 mph N/A   Clear
2:36 AM -13.0 °F -34.3 °F -22.5 °F 62% 30.19 in - WNW 12.7 mph 20.7 mph N/A   Clear
2:56 AM -13.2 °F -33.6 °F -22.9 °F 62% 30.20 in - WNW 11.5 mph 25.3 mph N/A   Clear
3:15 AM -13.4 °F -34.8 °F -23.4 °F 61% 30.20 in - WNW 12.7 mph 20.7 mph N/A   Clear
3:36 AM -13.9 °F -35.5 °F -23.6 °F 62% 30.21 in - WNW 12.7 mph 21.9 mph N/A   Clear
3:56 AM -13.9 °F -36.3 °F -23.8 °F 61% 30.22 in - WNW 13.8 mph 19.6 mph N/A   Clear
4:15 AM -14.1 °F -35.7 °F -24.0 °F 61% 30.24 in - WNW 12.7 mph 19.6 mph N/A   Clear
4:36 AM -14.8 °F -34.6 °F -24.7 °F 61% 30.24 in - WNW 10.4 mph 16.1 mph N/A   Clear
4:56 AM -14.8 °F -37.5 °F -25.4 °F 59% 30.26 in - WNW 13.8 mph 18.4 mph N/A   Clear
5:15 AM -15.0 °F -36.8 °F -25.6 °F 59% 30.27 in - WNW 12.7 mph 20.7 mph N/A   Clear
5:36 AM -15.7 °F -37.7 °F -25.8 °F 60% 30.27 in - WNW 12.7 mph 16.1 mph N/A   Clear
5:56 AM -15.9 °F -36.0 °F -25.8 °F 61% 30.28 in - WNW 10.4 mph 19.6 mph N/A   Clear
6:15 AM -15.9 °F -38.0 °F -26.1 °F 60% 30.29 in - WNW 12.7 mph 18.4 mph N/A   Clear
6:36 AM -16.1 °F -35.0 °F -26.5 °F 59% 30.30 in - WNW 9.2 mph - N/A   Clear
6:56 AM -16.6 °F -35.7 °F -26.5 °F 61% 30.30 in - WNW 9.2 mph 17.3 mph N/A   Clear
7:15 AM -16.6 °F -36.8 °F -26.5 °F 61% 30.31 in - WNW 10.4 mph 17.3 mph N/A   Clear
7:36 AM -16.8 °F -37.1 °F -26.7 °F 61% 30.32 in - West 10.4 mph - N/A   Clear
7:56 AM -17.0 °F -34.8 °F -26.7 °F 61% 30.33 in - West 8.1 mph - N/A   Clear
8:15 AM -17.1 °F -37.5 °F -26.7 °F 62% 30.34 in - West 10.4 mph 17.3 mph N/A   Clear
8:36 AM -16.6 °F -35.7 °F -26.5 °F 61% 30.35 in - West 9.2 mph - N/A   Clear
8:56 AM -15.9 °F -38.9 °F -26.0 °F 60% 30.35 in - West 13.8 mph - N/A   Clear
9:15 AM -15.3 °F -36.3 °F -25.6 °F 60% 30.36 in - West 11.5 mph 16.1 mph N/A   Clear
9:36 AM -14.8 °F -37.5 °F -25.4 °F 59% 30.37 in - WNW 13.8 mph 17.3 mph N/A   Clear
9:56 AM -14.3 °F -35.9 °F -24.9 °F 59% 30.37 in - WNW 12.7 mph 17.3 mph N/A   Clear
10:15 AM -13.5 °F -31.9 °F -24.2 °F 59% 30.38 in - WNW 9.2 mph - N/A   Clear
10:36 AM -12.8 °F -33.2 °F -23.8 °F 58% 30.39 in - WNW 11.5 mph - N/A   Clear
10:56 AM -12.5 °F -31.7 °F -23.8 °F 57% 30.40 in - West 10.4 mph 18.4 mph N/A   Clear
11:15 AM -11.7 °F -34.4 °F -22.9 °F 58% 30.40 in - West 15.0 mph 18.4 mph N/A   Clear
11:36 AM -11.2 °F -32.1 °F -22.2 °F 58% 30.40 in - West 12.7 mph - N/A   Clear
11:56 AM -10.5 °F -30.2 °F -21.5 °F 58% 30.40 in - WNW 11.5 mph - N/A   Clear
12:15 PM -9.8 °F -28.3 °F -21.3 °F 57% 30.40 in - WNW 10.4 mph 16.1 mph N/A   Clear
12:36 PM -8.9 °F -29.1 °F -20.4 °F 57% 30.40 in - West 12.7 mph - N/A   Clear
12:55 PM -8.7 °F -28.0 °F -20.0 °F 58% 30.40 in - West 11.5 mph - N/A   Clear
1:16 PM -9.0 °F -29.3 °F -20.9 °F 56% 30.40 in - West 12.7 mph 16.1 mph N/A   Clear
1:36 PM -8.5 °F -27.8 °F -19.7 °F 58% 30.39 in - West 11.5 mph 16.1 mph N/A   Clear
1:55 PM -8.1 °F -29.0 °F -19.3 °F 58% 30.39 in - WSW 13.8 mph - N/A   Clear
2:16 PM -8.5 °F -29.5 °F -19.7 °F 58% 30.39 in - WSW 13.8 mph - N/A   Clear
2:36 PM -8.0 °F -28.0 °F -18.6 °F 60% 30.39 in - West 12.7 mph - N/A   Clear
2:55 PM -8.0 °F -28.8 °F -18.8 °F 59% 30.39 in - West 13.8 mph 17.3 mph N/A   Clear
3:16 PM -8.0 °F -26.1 °F -18.8 °F 59% 30.39 in - West 10.4 mph - N/A   Clear
3:36 PM -7.8 °F -27.7 °F -18.6 °F 59% 30.39 in - West 12.7 mph - N/A   Clear
3:55 PM -7.8 °F -26.8 °F -18.6 °F 59% 30.39 in 10.0 mi West 11.5 mph - N/A   Clear
4:16 PM -8.0 °F -27.1 °F -18.8 °F 59% 30.39 in 10.0 mi West 11.5 mph 16.1 mph N/A   Clear
4:36 PM -8.5 °F -28.6 °F -19.1 °F 60% 30.39 in 10.0 mi West 12.7 mph - N/A   Clear
4:55 PM -9.0 °F -26.4 °F -19.3 °F 61% 30.40 in 10.0 mi West 9.2 mph - N/A   Clear
5:16 PM -9.8 °F -26.1 °F -19.8 °F 61% 30.39 in 10.0 mi West 8.1 mph - N/A   Clear
5:36 PM -10.5 °F -25.6 °F -20.4 °F 62% 30.40 in 10.0 mi West 6.9 mph - N/A   Clear
5:55 PM -10.7 °F -30.5 °F -20.4 °F 62% 30.40 in 10.0 mi West 11.5 mph - N/A   Clear
6:16 PM -11.2 °F -30.1 °F -20.4 °F 64% 30.40 in 10.0 mi West 10.4 mph - N/A   Clear
6:35 PM -11.2 °F -31.1 °F -20.4 °F 64% 30.40 in 10.0 mi West 11.5 mph 17.3 mph N/A   Clear
6:56 PM -12.1 °F -28.9 °F -20.7 °F 65% 30.40 in 10.0 mi West 8.1 mph - N/A   Clear
7:16 PM -12.3 °F -31.5 °F -20.7 °F 66% 30.41 in 10.0 mi West 10.4 mph - N/A   Clear
7:35 PM -12.6 °F -29.6 °F -21.1 °F 66% 30.41 in 10.0 mi West 8.1 mph - N/A   Clear
7:56 PM -13.0 °F -27.0 °F -21.3 °F 67% 30.41 in 10.0 mi WSW 5.8 mph - N/A   Clear
8:16 PM -13.5 °F -25.7 °F -21.5 °F 68% 30.41 in 10.0 mi WSW 4.6 mph - N/A   Clear
8:36 PM -14.3 °F -26.5 °F -22.0 °F 68% 30.41 in 10.0 mi WSW 4.6 mph - N/A   Clear
8:56 PM -14.8 °F -29.1 °F -22.2 °F 69% 30.40 in 10.0 mi WSW 5.8 mph - N/A   Clear
9:16 PM -14.8 °F -24.8 °F -22.4 °F 69% 30.40 in 10.0 mi WSW 3.5 mph - N/A   Clear
9:35 PM -15.9 °F -26.0 °F -23.6 °F 68% 30.40 in 10.0 mi WSW 3.5 mph - N/A   Clear
9:56 PM -17.0 °F - -24.2 °F 70% 30.39 in 10.0 mi Calm Calm - N/A   Clear
10:16 PM -16.8 °F - -23.8 °F 70% 30.39 in 10.0 mi Calm Calm - N/A   Clear
10:35 PM -18.4 °F - -24.9 °F 72% 30.38 in 10.0 mi Calm Calm - N/A   Clear
10:56 PM -16.6 °F - -22.9 °F 73% 30.38 in 10.0 mi Calm Calm - N/A   Clear
11:15 PM -17.1 °F -27.4 °F -22.5 °F 76% 30.37 in 10.0 mi SSW 3.5 mph - N/A   Clear
11:36 PM -16.4 °F - -22.2 °F 75% 30.37 in 10.0 mi Calm Calm - N/A   Clear
11:56 PM -17.7 °F - -23.1 °F 76% 30.37 in 10.0 mi Calm Calm - N/A   Clear